Location: Bottom School (historical)
(37.9078°N, 89.3593°W)
Time: 07:57:15
(UTC+00:00)

COSMOS 2251 DEB - Visible Passes

Search period start: 06 December 2023 00:00
Search period end: 16 December 2023 00:00
Orbit: 568 x 653 km, 74.0° (Epoch: 03 December)

Date Brightness Start Highest point End Pass type
(mag) Time Alt. Az. Time Alt. Az. Time Alt. Az.
07 Dec ? 11:25:34 10° NNE 11:27:26 12° ENE 11:29:18 10° E visible
08 Dec ? 11:38:49 10° NNE 11:42:23 22° ENE 11:45:57 10° ESE visible
09 Dec ? 11:52:51 10° N 11:57:11 39° ENE 12:01:31 10° SE visible
10 Dec ? 12:07:13 10° NNW 12:11:51 75° ENE 12:16:28 10° SSE visible
11 Dec ? 10:44:50 10° NNE 10:47:21 14° ENE 10:49:52 10° E visible
11 Dec ? 12:21:50 10° NNW 12:26:23 56° WSW 12:30:54 10° S visible
12 Dec ? 10:58:20 10° N 11:02:10 25° ENE 11:05:59 10° ESE visible
13 Dec ? 11:12:56 13° N 11:16:49 46° ENE 11:21:16 10° SE visible
14 Dec ? 01:18:12 10° SSW 01:18:41 13° SSW 01:18:41 13° SSW visible
14 Dec ? 11:27:58 19° NNW 11:31:21 88° ENE 11:35:59 10° SSE visible
14 Dec ? 23:56:25 10° SE 23:57:02 12° ESE 23:57:02 12° ESE visible
15 Dec ? 01:32:54 10° SW 01:34:03 17° SW 01:34:03 17° SW visible
15 Dec ? 10:06:03 16° NE 10:06:50 17° ENE 10:09:46 10° E visible
15 Dec ? 11:43:04 22° NW 11:45:45 47° WSW 11:50:10 10° S visible
